Regional Weather Roundup
Issued by NWS

Home | Current Version | Previous Version | Text Only | Print | Product List | Glossary On
Versions: 1 2 3 4 5 6 7 8 9 10 11 12 13 14 15 16 17 18 19 20 21 22 23 24 25 26 27 28 29 30 31 32 33 34 35 36 37 38 39 40 41 42 43 44 45 46 47 48 49 50
000
ASUS43 KLOT 310410
RWRIL

ILLINOIS REGIONAL WEATHER ROUNDUP
NATIONAL WEATHER SERVICE CHICAGO/ROMEOVILLE IL
1000 PM CST FRI JAN 30 2015

NOTE: "FAIR" INDICATES FEW OR NO CLOUDS BELOW 12,000 FEET WITH NO
SIGNIFICANT WEATHER AND/OR OBSTRUCTIONS TO VISIBILITY.

* THESE STATIONS ARE NOT UNDER NWS QUALITY CONTROL. THEY ALSO MAY NOT
  REPORT WEATHER SUCH AS PRECIPITATION OR FOG.

ILZ001-002-007-009-015-016-024-310500-
NORTHWEST ILLINOIS

CITY           SKY/WX    TMP DP  RH WIND       PRES   REMARKS
MOLINE         PTCLDY    22  16  78 CALM      30.36F
STERLING*      MOCLDY    21  14  73 S3        30.36F
SAVANNA*       PTCLDY    20  16  81 S3        30.36F
$$

ILZ003-004-008-010-011-017-018-310500-
NORTH CENTRAL ILLINOIS

CITY           SKY/WX    TMP DP  RH WIND       PRES   REMARKS
ROCKFORD       PTCLDY    18  12  77 S5        30.37F WCI  11
FREEPORT*      CLOUDY    18  14  84 S7        30.36F WCI   9
ROCHELLE*      CLEAR     17  14  88 SE5       30.38S WCI  10
DE KALB*       CLEAR     16  12  84 S5        30.36F WCI   9
PERU*          CLEAR     22  17  80 SE5       30.39F WCI  16
$$

ILZ005-006-012>014-019>023-310500-
NORTHEAST ILLINOIS

CITY           SKY/WX    TMP DP  RH WIND       PRES   REMARKS
CHICAGO-OHARE  PTCLDY    21  13  71 SW3       30.37F
CHICAGO-MIDWAY CLEAR     24  14  65 SW5       30.39F WCI  18
AURORA         CLEAR     19  13  77 CALM      30.38F
LANSING*       CLEAR     19  13  79 S5        30.40F WCI  12
JOLIET*        CLEAR     17  14  91 CALM      30.39F
WAUKEGAN       CLEAR     19  12  74 SW6       30.35F WCI  11
DUPAGE AIRPORT CLEAR     16  11  80 S3        30.36F
KANKAKEE*      CLEAR     23  20  89 S3        30.40F
WHEELING       CLEAR     21  12  68 SW3       30.39F
MORRIS*        CLEAR     21  20  96 SE3       30.39F
ROMEOVILLE*    CLEAR     19  13  78 S3        30.39S
NORTHERLY ISL    N/A     26  15  63 SW2         N/A
$$

LMZ740>746-310500-
SOUTHERN LAKE MICHIGAN

STATION/POSITION SKY/WX   TEMP    WIND        PRES    VSBY  WAVE
                          AIR SEA DIR/SP/G                  HT/PER
                          (F)     (DEG/KT/KT) (MB)    (MI)  (FT/S)
WAUKEGAN HARBOR            22     240/  6/  8   N/A
HARRISON CRIB              26     250/  8/ 10   N/A
BURNHAM HARBOR             26     220/  4/  6   N/A
CALUMET HARBOR             25     200/  3/  4   N/A
MICHIGAN CITY              23     150/  9/ 12   N/A
$$

ILZ025>027-034>036-040-047-049-050-058-095>099-310500-
WEST-CENTRAL ILLINOIS

CITY           SKY/WX    TMP DP  RH WIND       PRES   REMARKS
QUINCY         PTCLDY    27  17  66 S5        30.38F WCI  22
GALESBURG*     CLEAR     24  20  86 S5        30.37F WCI  18
MACOMB*        CLEAR     25  21  85 S3        30.40F
JACKSONVILLE*  CLEAR     30  19  63 S5        30.40F WCI  25
PITTSFIELD*    PTCLDY    26  23  88 CALM      30.40F
$$

ILZ028>032-037-038-041>044-048-051>054-059>061-310500-
CENTRAL ILLINOIS

CITY           SKY/WX    TMP DP  RH WIND       PRES   REMARKS
PONTIAC        CLEAR     26  23  89 CALM      30.40F
BLOOMINGTON    CLEAR     22  20  92 S7        30.40F WCI  14
DECATUR        CLEAR     24  21  88 S5        30.41F WCI  18
PEORIA         CLEAR     25  17  72 S3        30.40F
LACON*         CLEAR     20  17  88 CALM      30.39F
LINCOLN*       CLEAR     27  23  84 S3        30.43S
SPRINGFIELD    CLEAR     26  19  74 S5        30.41F WCI  20
TAYLORVILLE    CLEAR     27  21  80 S6        30.42F WCI  20
$$

ILZ033-039-045-046-055>057-062-063-310500-
EAST-CENTRAL ILLINOIS

CITY           SKY/WX    TMP DP  RH WIND       PRES   REMARKS
CHAMPAIGN      CLEAR     23  19  85 S5        30.41F WCI  17
DANVILLE*      CLEAR     22  19  88 CALM      30.39F
RANTOUL*       CLEAR     25  21  84 S3        30.40F
MATTOON        CLEAR     22  18  85 S3        30.41F
PARIS*         CLEAR     24  22  93 CALM      30.44F
$$

ILZ079-100>102-310500-
SOUTHWEST ILLINOIS

CITY           SKY/WX    TMP DP  RH WIND       PRES   REMARKS
ALTON          PTCLDY    25  20  81 SE3       30.43S
BELLEVILLE     PTCLDY    26  21  83 SE2       30.43F
CAHOKIA*       PTCLDY    29  21  72 S6        30.43F WCI  23
SPARTA*        PTCLDY    28  21  75 CALM      30.45F
$$

ILZ064>066-069>071-074>076-080>082-084>086-088>090-092>094-310500-
SOUTH-CENTRAL ILLINOIS

CITY           SKY/WX    TMP DP  RH WIND       PRES   REMARKS
CARBONDALE     MOCLDY    24  19  81 SE3       30.45F
CAIRO*         MOCLDY    32  25  73 NE3       30.45F
EFFINGHAM*     CLEAR     24  19  81 CALM      30.46S
MARION         MOCLDY    27  21  80 CALM      30.45F
MT. VERNON     CLEAR     21  16  79 CALM      30.45S
CENTRALIA*     CLEAR     24  21  87 CALM      30.44S
SALEM*         CLEAR     27  23  86 CALM      30.44F
METROPOLIS*    PTCLDY    29  23  79 CALM      30.45S
$$

ILZ067-068-072-073-078-083-087-091-310500-
SOUTHEAST ILLINOIS

CITY           SKY/WX    TMP DP  RH WIND       PRES   REMARKS
LAWRENCEVILLE  CLEAR     26  22  84 CALM      30.45F
FLORA*         CLEAR     25  23  91 CALM      30.45F
FAIRFIELD*     CLEAR     25  22  88 CALM      30.44S
HARRISBURG*    PTCLDY    26  23  89 CALM      30.47S
ROBINSON*      CLEAR     22  20  92 CALM      30.46S
CARMI*         CLEAR     26  24  93 CALM      30.45F
$$

ABBREVIATIONS USED IN REMARKS
   TC - TEMPERATURE IN CELSIUS
  WCI - WIND CHILL INDEX
   HX - HEAT INDEX
  VSB - VISIBILITY
$$



USA.gov is the U.S. government's official web portal to all federal, state and local government web resources and services.